Вернуться в каталог

CZ-4C DEB

АктивенSSO
NORAD 37568·DEBRIS·🇨🇳 China

Запущен Aug 9, 2010 с Taiyuan Satellite Launch Center

Loading…

Ближайшие Пролёты (ближайшие 24 часа)

TLE

СвежийSource: Space-Track

Эпоха: Sep 13, 2026, 17:04 UTC

1 37568U 10038D   26256.71156881  .00003251  00000-0  41037-3 0  9998
2 37568  97.9570 350.7998 0115116 342.4892  17.2363 14.78034141848865

Отслеживайте CZ-4C DEB в реальном времени с AllMySat

Download on the App Store